Location: Hamayl? Da??
(36.7028°N, 30.1716°E)
Time: 07:29:42
(UTC+00:00)

NOSS 3-2 (A) - Pass Details

Date: 04 August 2024
Orbit: 703 x 1502 km, 63.4° (Epoch: 12 August)

Event Time Altitude Azimuth Distance (km) Brightness Sun altitude
Rises 19:23:43 0° 329° (NNW) 4,007 8.0 -24.2°
Reaches altitude 10° 19:26:16 10° 332° (NNW) 3,148 7.1 -24.5°
Maximum altitude 19:34:05 73° 57° (ENE) 1,416 4.2 -25.6°
Enters shadow 19:36:56 47° 127° (SE) 1,801 4.4 -25.9°
